Powrót do katalogu

CZ-4B DEB

AktywnyLEO
NORAD 46471·DEBRIS·🇨🇳 China

Wystrzelony Sep 21, 2020 z Jiuquan Satellite Launch Center

Loading…

Następne Przeloty (najbliższe 24 godziny)

TLE

ŚwieżeSource: Space-Track

Epoka: Sep 14, 2026, 12:47 UTC

1 46471U 20066C   26257.53311713  .00000019  00000-0  81905-4 0  9999
2 46471  66.0782 318.7622 0026414 145.6931 214.5853 13.89488775303361

Śledź CZ-4B DEB w czasie rzeczywistym z AllMySat

Download on the App Store